{"data":{"norad_id":49742,"intl_designator":"2021-115U","name":"STARLINK-3202","alt_names":[],"object_type":"PAYLOAD","status":"ACTIVE","operator":null,"country":"US","launch_date":"2021-12-02","launch_site_code":"AFETR","launch_vehicle":null,"mission":null,"orbit_class":"UNKNOWN","rcs_meters":null,"size_class":null,"mass_kg":null,"dimensions":null,"purposes":["comms"],"wikipedia_slug":null,"has_3d_model":false,"image_url":null,"decayed_at":null,"tle_current":{"epoch":"2026-09-19T22:23:27.242016Z","epoch_age_seconds":94333,"freshness":"FRESH","line1":"1 49742U 21115U   26262.93295419 -.00000638  00000+0 -73842-5 0  9993","line2":"2 49742  53.1603 344.0613 0000962  83.2969 276.8144 15.35389570265035","mean_motion":15.3538957,"eccentricity":9.62e-5,"inclination_deg":53.1603,"raan_deg":344.0613,"arg_perigee_deg":83.2969,"mean_anomaly_deg":276.8144,"bstar":-7.3842e-6,"rev_number":26503,"period_min":93.787272503095,"perigee_km":459.10580339262,"apogee_km":460.42141546988,"semimajor_km":6837.9006094312,"source":"CELESTRAK","updated_at":"2026-09-20T09:00:39.406621Z"}}}